Regional Weather Roundup
Issued by NWS

Home | Current Version | Previous Version | Text Only | Print | Product List | Glossary On
Versions: 1 2 3 4 5 6 7 8 9 10 11 12 13 14 15 16 17 18 19 20 21 22 23 24 25 26 27 28 29 30 31 32 33 34 35 36 37 38 39 40 41 42 43 44 45 46 47 48 49 50
000
ASUS45 KPSR 210810
RWRAZ

ARIZONA HOURLY REGIONAL WEATHER ROUNDUP
NATIONAL WEATHER SERVICE PHOENIX AZ
100 AM MST TUE FEB 21 2017

NOTE: FAIR INDICATES FEW OR NO CLOUDS BELOW 12,000 FEET WITH NO
SIGNIFICANT WEATHER AND/OR OBSTRUCTIONS TO VISIBILITY.

AZZ001>003-036-210900-
NORTHWEST ARIZONA

CITY           SKY/WX    TMP DP  RH WIND       PRES   REMARKS
BULLHEAD CITY  CLEAR     57  52  82 CALM      30.28S
KINGMAN        CLEAR     43  40  89 SE10      30.32S
$$

AZZ004>008-015-016-018-210900-
NORTH CENTRAL ARIZONA

CITY           SKY/WX    TMP DP  RH WIND       PRES   REMARKS
GRAND CANYON   CLEAR     33  33 100 SW8       30.38S WCI  26
WILLIAMS       CLEAR     36  34  93 CALM      30.40R
PRESCOTT       CLEAR     40  39  97 CALM      30.36S
FLAGSTAFF      CLEAR     32  32 100 VRB3      30.39S
PAYSON         CLEAR     41  37  87 VRB3      30.40S
PAGE           PTCLDY    47  37  68 CALM      30.27S
$$

AZZ009>014-017-210900-
NORTHEAST ARIZONA

CITY           SKY/WX    TMP DP  RH WIND       PRES   REMARKS
WINSLOW        CLEAR     39  35  86 E7        30.35S WCI  34
SAINT JOHNS    CLEAR     38  31  76 S7        30.38S WCI  33
WINDOW ROCK    CLEAR     33  28  81 CALM      30.40R
SHOW LOW       CLEAR     36  32  87 S6        30.42R WCI  31
$$

AZZ023-210900-
GREATER PHOENIX AREA

CITY           SKY/WX    TMP DP  RH WIND       PRES   REMARKS
PHOENIX        PTCLDY    57  50  77 CALM      30.28S
BUCKEYE        CLEAR     54  54 100 NE3       30.30S
LUKE AFB       CLEAR     54  53  97 N7        30.28F
DEER VALLEY    CLEAR     54  50  86 NE6       30.29S
SCOTTSDALE     CLEAR     54  49  83 CALM      30.26F
MESA-GATEWAY   CLEAR     52  50  93 E5        30.30F
$$

AZZ027-028-210900-
SOUTHWEST MARICOPA COUNTY AND PINAL COUNTY

CITY           SKY/WX    TMP DP  RH WIND       PRES   REMARKS
CASA GRANDE    NOT AVBL
GILA BEND      FAIR      55  52  92 SE6       30.29R
$$

AZZ503-504-507>509-210900-
SOUTHEAST ARIZONA

CITY           SKY/WX    TMP DP  RH WIND       PRES   REMARKS
TUCSON         CLEAR     51  45  79 S6        30.33S
DAVIS-MONTHAN  CLEAR     48  46  93 SE8       30.32S
NOGALES        CLEAR     45  38  76 E3        30.33R
SIERRA VISTA   CLEAR     45  39  78 SE5       30.37R
DOUGLAS        CLEAR     40  38  93 NE6       30.34R
SAFFORD        CLEAR     46  41  82 CALM      30.31R
$$

AZZ020-021-025-026-031-210900-
SOUTHWEST ARIZONA

CITY           SKY/WX    TMP DP  RH WIND       PRES   REMARKS
YUMA           CLEAR     59  53  80 CALM      30.28S
$$

CAZ031-033-041-043-047-048-061-210900-
SOUTHERN CALIFORNIA

CITY           SKY/WX    TMP DP  RH WIND       PRES   REMARKS
DOWNTOWN L.A.  CLOUDY    60  55  83 CALM      30.30F
L.A. AIRPORT   MOCLDY    59  55  87 SE5       30.30F
SAN DIEGO      PTCLDY    58  53  84 N3        30.33S
BURBANK        CLOUDY    57  54  89 SW3       30.30S
ONTARIO        CLOUDY    56  53  90 CALM      30.31F
RIVERSIDE      CLOUDY    56  54  93 CALM      30.32S
PALM SPRINGS   PTCLDY    59  55  87 NW5       30.31R
EL CENTRO NAS  CLEAR     57  50  77 CALM      30.28S
IMPERIAL       CLEAR     59  52  77 CALM      30.26S
BLYTHE         CLEAR     56  56 100 CALM      30.27S
NEEDLES        CLEAR     57  52  83 SW6       30.28S
$$

NVZ020-UTZ003-210900-
SOUTHERN NEVADA-UTAH

CITY           SKY/WX    TMP DP  RH WIND       PRES   REMARKS
LAS VEGAS      PTCLDY    60  45  57 S12       30.18F
SALT LAKE CITY PTCLDY    52  39  61 S28G38    30.02S
$$

NMZ009-TXZ055-210900-
NEW MEXICO-WEST TEXAS

CITY           SKY/WX    TMP DP  RH WIND       PRES   REMARKS
ALBUQUERQUE    CLOUDY    46  30  53 VRB6      30.33R
EL PASO        CLEAR     48  27  44 SE9       30.25R
$$


........................KEY........................
SKY/WX - SKY CONDITION/WEATHER
TMP    - TEMPERATURE IN FAHRENHEIT
DP     - DEW POINT IN FAHRENHEIT
RH     - RELATIVE HUMIDITY IN PERCENT
WIND   - DIRECTION AND SPEED IN MILES PER HOUR (MPH)
VRB    - VARIABLE WIND DIRECTION
PRES   - MEAN SEA LEVEL PRESSURE IN INCHES OF MERCURY
         F - FALLING PRESSURE   R - RISING PRESSURE
         S - STEADY PRESSURE
VSB    - VISIBILITY IN MILES
HX     - HEAT INDEX IN FAHRENHEIT
WCI    - WIND CHILL INDEX IN FAHRENHEIT
TC     - TEMPERATURE IN CELSIUS WHICH IS ALSO KNOWN AS
         TEMPERATURE IN CENTIGRADE
AFB    - AIR FORCE BASE
         LUKE AFB IS LUKE AIR FORCE BASE
         DAVIS-MONTHAN IS DAVIS-MONTHAN AIR FORCE BASE
NAS    - NAVAL AIR STATION
         EL CENTRO NAS IS EL CENTRO NAVAL AIR STATION
N/A    - NOT AVAILABLE




USA.gov is the U.S. government's official web portal to all federal, state and local government web resources and services.